Wind_Speed
7 5 5 5 4 4 6 7 9 12 15 19 20 21 24 27 32 36 38 41 45 47 49 51 51 50 48 50 51 49 50 49 49 48 47 46 46 45 44 43 42 41 40 40
5 4 4 3 2 1 4 4 7 11 14 16 18 20 22 25 29 34 36 39 42 45 46 47 48 48 47 48 48 47 47 47 48 47 47 47 46 45 45 44 44 44 43 42
6 5 4 3 1 1 3 5 8 12 13 14 16 18 19 22 26 31 33 36 39 43 44 45 46 47 46 46 45 44 44 44 45 44 46 47 47 45 46 46 46 45 44 44
5 5 5 4 3 3 5 7 9 10 11 13 15 15 17 20 24 28 31 33 37 39 43 43 43 45 45 44 44 44 41 41 44 45 43 42 44 44 45 45 45 46 46 46
6 5 5 6 5 6 7 8 9 10 11 12 12 13 15 19 21 25 29 31 33 35 39 42 44 44 45 44 41 43 40 40 43 46 44 42 43 43 44 47 48 48 48 47
5 5 6 7 8 8 9 9 9 10 11 11 11 11 13 16 19 22 25 28 30 32 34 37 39 41 42 42 39 39 39 38 42 45 45 44 45 44 44 46 48 49 49 50
6 6 6 7 8 9 10 10 10 10 10 10 9 9 9 11 14 18 22 25 26 28 29 32 34 36 39 40 40 38 37 37 39 42 45 45 45 45 44 45 47 50 51 51
7 7 8 9 9 9 9 8 9 10 10 11 9 8 8 8 10 13 17 21 22 24 25 29 32 34 37 38 39 40 37 36 37 40 42 44 45 44 45 47 48 49 50 51
8 8 8 9 10 9 9 9 9 9 10 10 8 8 8 9 9 10 14 18 20 21 22 25 28 31 33 34 35 37 38 39 39 39 40 43 45 45 44 46 47 49 51 51
9 9 9 10 10 10 9 9 9 9 10 10 9 7 7 8 8 8 10 15 18 21 22 24 27 29 31 33 34 35 37 39 40 40 42 44 45 45 44 44 45 46 47 49
10 9 9 9 9 9 9 8 7 7 8 9 8 6 5 6 7 8 10 14 17 18 21 23 24 27 29 32 34 35 36 37 39 40 41 43 44 45 45 44 44 46 46 46
9 9 9 10 10 10 9 8 7 7 7 7 6 5 5 6 7 8 10 13 16 17 20 22 23 24 28 30 33 35 37 37 39 40 42 43 43 44 44 44 44 44 45 45
9 9 9 9 9 9 8 7 7 7 6 5 4 4 4 5 6 7 9 12 15 17 20 22 23 24 26 28 32 34 36 37 39 41 41 41 42 44 44 44 44 44 44 44
9 8 7 7 7 7 7 7 7 6 6 5 3 3 2 3 5 7 9 11 14 17 20 22 25 26 27 28 30 32 35 38 39 41 42 42 43 43 44 44 44 45 44 45
7 7 6 5 5 5 5 5 6 5 5 3 2 0 1 2 4 6 8 11 13 16 18 21 23 26 28 30 31 33 35 37 39 41 42 43 43 44 44 44 44 45 44 44
6 6 5 5 4 4 3 3 3 3 3 2 1 1 3 5 6 8 9 11 13 15 18 21 23 26 28 30 32 34 35 37 37 39 40 41 42 42 42 43 44 45 45 45
5 5 5 5 5 4 3 2 1 1 1 1 2 3 5 6 8 9 11 12 14 17 19 21 23 25 28 29 31 33 34 36 37 38 39 40 40 41 41 42 43 44 44 45
5 5 5 4 4 3 3 2 1 1 2 3 4 6 7 8 10 11 13 15 17 19 21 23 24 26 28 30 31 33 35 36 37 37 38 39 40 41 41 41 41 41 42 43
4 3 3 2 2 1 2 2 2 3 4 6 7 8 9 11 12 14 15 17 19 21 23 25 26 28 30 31 32 33 35 36 37 37 37 38 38 39 39 39 39 40 40 41
3 3 2 1 1 2 3 4 6 7 8 9 11 12 13 14 15 17 18 20 21 23 24 27 29 31 32 33 34 35 35 36 36 37 38 38 38 38 38 38 39 39 40 40
2 2 2 2 3 4 5 6 7 9 10 12 13 14 15 16 17 19 21 22 23 25 26 28 30 32 33 34 35 36 36 36 37 37 38 38 38 37 37 38 38 38 38 39
1 2 3 4 5 6 7 8 9 10 11 13 14 15 16 18 19 21 23 24 25 26 28 29 31 32 33 34 35 36 36 36 37 38 38 38 37 37 36 36 36 36 36 37
3 4 5 6 6 7 9 9 10 12 13 14 16 17 18 20 21 23 24 26 27 28 29 30 31 32 32 33 34 35 36 36 37 37 38 38 37 37 36 36 35 35 35 35
5 6 6 7 8 9 10 11 12 13 15 16 18 20 21 22 24 25 27 28 30 31 32 32 32 32 33 34 35 36 36 37 38 38 38 38 37 37 36 36 36 35 35 35
7 7 8 9 11 12 12 13 15 16 17 19 21 23 24 26 27 28 29 30 32 33 33 33 33 34 34 35 35 36 36 37 38 39 38 38 38 37 37 36 36 35 35 34
9 10 11 11 13 14 14 16 17 18 20 22 24 25 27 29 31 31 32 33 34 34 34 34 34 34 34 34 33 33 34 35 36 37 36 36 38 37 36 36 36 35 35 35
Wind_Direction
333 329 333 328 301 271 233 224 213 206 199 198 200 203 203 204 205 205 206 206 205 206 206 207 207 207 209 210 210 211 211 215 218 220 223 226 226 227 228 229 231 233 235 237
1 6 1 350 317 216 205 195 188 197 190 189 194 199 200 203 204 204 207 208 207 207 209 209 209 210 211 211 211 212 213 215 219 222 224 225 226 228 229 230 232 234 236 239
30 34 33 31 39 154 165 169 172 179 183 183 186 189 197 201 202 206 209 210 210 211 212 212 213 214 213 213 214 214 215 217 220 223 226 227 228 229 231 232 234 237 239 241
39 55 58 64 75 118 136 142 156 170 178 179 185 188 192 193 197 204 208 210 211 211 212 214 215 216 216 216 218 219 221 221 223 224 227 229 231 233 234 235 237 239 242 244
48 66 74 79 92 116 124 131 143 159 171 176 182 188 192 193 197 204 209 211 211 213 217 220 221 220 220 221 223 221 223 223 224 226 229 231 233 235 238 238 238 240 242 244
59 74 85 89 95 112 118 122 134 149 158 168 175 181 190 197 201 206 210 211 210 213 216 221 223 224 223 224 225 225 228 227 227 230 232 235 237 240 242 241 242 243 244 245
75 85 95 96 103 111 119 123 128 143 158 160 162 170 175 189 199 206 210 213 212 211 215 217 222 226 227 229 232 232 235 233 233 234 235 237 239 241 242 243 244 245 246 247
92 98 103 107 110 114 118 125 132 140 150 153 158 167 167 176 194 206 214 218 217 218 221 222 225 229 231 234 238 240 241 243 244 242 242 243 244 245 246 246 246 246 246 247
97 104 103 110 114 115 117 122 129 136 145 150 150 156 163 176 193 209 217 221 225 226 226 226 229 234 236 238 243 246 249 252 253 252 252 251 250 251 252 251 251 251 250 250
95 103 103 106 109 111 115 121 129 136 142 147 147 149 160 178 197 215 225 227 231 234 235 235 236 238 242 243 246 250 254 256 256 258 259 258 258 256 256 257 256 254 253 253
93 97 101 104 104 107 118 122 130 132 135 144 145 152 166 184 202 216 228 232 235 238 240 241 242 244 247 249 249 253 256 257 257 259 261 263 262 261 260 260 260 259 256 255
95 97 100 102 100 104 112 116 122 132 132 143 150 164 182 199 211 220 228 234 239 242 244 246 249 250 251 252 254 256 257 258 259 261 263 264 264 263 263 263 261 259 258 257
97 103 104 102 97 100 100 101 105 122 131 138 155 173 193 209 225 232 236 240 245 249 251 254 256 258 259 259 259 260 261 261 261 263 265 266 266 266 265 265 262 260 259 259
96 102 106 103 102 98 99 96 94 104 114 119 121 142 185 213 237 243 247 248 248 251 255 258 261 264 265 265 264 263 263 263 264 265 267 268 268 269 267 265 264 263 262 262
93 99 105 114 113 107 103 98 89 89 93 97 106 136 291 275 263 258 260 259 257 254 257 260 261 263 264 266 267 266 266 266 265 266 267 268 268 267 266 265 264 263 263 262
87 93 99 107 110 107 111 111 99 84 78 74 64 314 318 311 298 281 273 271 270 265 263 265 266 266 267 266 266 267 266 267 267 268 268 268 268 268 267 266 265 264 264 264
87 90 97 101 93 91 95 111 108 58 23 349 313 298 303 305 301 292 281 278 278 276 272 270 270 271 272 271 270 270 269 269 269 269 269 269 270 269 269 268 267 266 265 263
89 94 98 99 95 87 75 66 48 346 319 314 307 298 298 296 296 292 284 281 279 279 277 274 274 274 274 273 273 273 272 272 272 271 272 272 271 271 270 269 268 267 266 265
79 86 98 102 95 67 21 358 338 317 303 304 305 302 299 297 297 297 293 288 286 284 281 278 277 276 275 274 274 275 274 274 272 272 273 273 273 271 270 269 269 268 267 266
70 64 66 54 308 313 323 317 314 312 305 301 298 297 296 295 296 296 294 292 291 290 287 283 281 279 277 277 277 277 276 274 273 273 273 272 271 271 271 270 269 268 267 265
53 25 9 336 321 321 321 316 317 316 314 307 303 300 298 297 297 298 298 296 294 293 292 289 285 281 280 279 279 279 278 275 274 274 273 272 272 271 270 270 269 268 266 264
300 324 324 317 315 316 320 321 321 319 317 313 309 306 304 302 300 301 302 301 297 296 295 293 289 286 285 283 281 279 278 276 275 275 273 272 271 271 271 271 269 267 265 262
277 300 309 313 312 313 316 317 319 321 320 318 315 312 309 307 305 303 302 301 299 298 296 293 291 290 289 287 283 280 277 275 274 274 274 272 270 270 270 270 269 267 264 261
271 289 299 305 307 308 311 315 317 320 320 318 316 314 312 310 308 307 305 302 300 298 296 294 291 290 290 288 285 282 279 276 274 274 273 272 270 269 269 268 267 265 263 261
274 287 296 302 302 302 305 309 313 315 318 318 317 315 312 310 309 308 307 305 302 299 298 295 293 291 291 290 288 284 279 277 275 274 272 271 269 268 268 267 265 263 262 261
275 286 294 297 301 301 304 307 311 314 316 316 316 315 314 312 311 309 307 306 305 301 298 296 294 292 292 291 289 286 281 279 277 275 273 272 269 268 267 265 263 262 262 261
Height
5627 5625 5623 5621 5619 5618 5617 5617 5618 5620 5622 5625 5629 5633 5638 5643 5648 5655 5661 5668 5675 5683 5689 5697 5705 5713 5719 5725 5732 5740 5746 5753 5759 5764 5769 5774 5779 5782 5786 5790 5793 5797 5800 5802
5627 5624 5622 5620 5619 5618 5617 5617 5618 5620 5622 5625 5629 5633 5637 5642 5648 5653 5659 5666 5672 5680 5687 5693 5701 5708 5714 5720 5726 5733 5740 5746 5753 5757 5762 5766 5771 5774 5778 5782 5785 5788 5791 5794
5626 5625 5622 5620 5619 5618 5618 5618 5619 5621 5623 5626 5630 5635 5638 5642 5647 5652 5657 5663 5670 5677 5683 5690 5696 5703 5709 5715 5721 5728 5733 5740 5745 5749 5754 5759 5763 5766 5770 5774 5777 5781 5784 5786
5626 5624 5622 5621 5619 5619 5619 5619 5621 5622 5625 5628 5631 5634 5638 5641 5646 5651 5656 5662 5668 5674 5681 5686 5692 5699 5705 5711 5717 5722 5728 5733 5738 5743 5747 5751 5756 5760 5763 5767 5770 5773 5775 5778
5626 5625 5623 5621 5620 5620 5620 5621 5622 5624 5626 5629 5631 5635 5638 5641 5646 5650 5655 5661 5667 5673 5678 5683 5689 5695 5701 5706 5712 5717 5722 5726 5731 5735 5740 5744 5747 5751 5754 5757 5760 5763 5766 5768
5626 5625 5624 5623 5622 5622 5622 5623 5624 5625 5628 5631 5633 5636 5639 5641 5646 5650 5655 5660 5666 5671 5676 5681 5686 5692 5697 5702 5706 5711 5716 5720 5724 5728 5732 5736 5739 5743 5745 5748 5750 5753 5755 5758
5627 5626 5625 5625 5624 5624 5625 5626 5627 5628 5629 5632 5634 5637 5640 5642 5645 5649 5654 5659 5664 5669 5674 5678 5683 5688 5693 5697 5701 5705 5710 5714 5717 5720 5724 5727 5730 5733 5736 5738 5740 5743 5745 5748
5628 5628 5627 5627 5627 5626 5627 5628 5630 5630 5631 5634 5636 5637 5641 5642 5646 5649 5653 5658 5662 5667 5671 5675 5680 5684 5689 5693 5696 5700 5704 5707 5710 5713 5715 5718 5721 5723 5725 5728 5730 5732 5735 5737
5629 5629 5629 5629 5629 5629 5629 5630 5631 5633 5633 5635 5637 5639 5641 5643 5646 5649 5652 5657 5661 5665 5669 5673 5677 5680 5684 5688 5691 5694 5697 5699 5702 5704 5707 5709 5711 5714 5715 5717 5719 5721 5723 5725
5631 5631 5631 5631 5631 5631 5632 5632 5634 5635 5635 5637 5639 5640 5643 5644 5647 5649 5652 5655 5659 5663 5667 5670 5673 5676 5680 5683 5686 5688 5690 5692 5694 5696 5698 5700 5701 5703 5704 5706 5708 5709 5711 5713
5633 5633 5634 5633 5633 5633 5634 5635 5635 5636 5637 5638 5639 5643 5643 5645 5647 5649 5652 5655 5658 5661 5664 5667 5670 5672 5675 5678 5680 5682 5684 5685 5687 5688 5689 5691 5692 5692 5693 5695 5696 5697 5699 5701
5635 5635 5635 5635 5635 5635 5635 5636 5637 5638 5639 5639 5640 5645 5643 5645 5647 5649 5651 5653 5656 5658 5661 5663 5665 5668 5670 5672 5673 5675 5676 5677 5678 5680 5681 5681 5681 5682 5682 5683 5684 5685 5687 5689
5636 5637 5637 5637 5639 5638 5637 5637 5638 5639 5640 5640 5641 5645 5643 5645 5646 5648 5649 5650 5653 5655 5657 5659 5661 5662 5664 5665 5666 5667 5668 5669 5670 5670 5671 5671 5671 5671 5671 5672 5672 5673 5675 5676
5638 5638 5639 5640 5639 5638 5639 5639 5639 5640 5640 5641 5642 5643 5643 5644 5645 5646 5647 5648 5649 5651 5653 5655 5656 5657 5658 5658 5658 5659 5659 5660 5660 5660 5660 5660 5659 5659 5660 5660 5661 5662 5663 5664
5639 5639 5639 5639 5639 5640 5640 5640 5640 5641 5641 5642 5642 5642 5642 5643 5643 5644 5645 5645 5646 5647 5648 5649 5650 5651 5651 5651 5651 5651 5651 5650 5650 5650 5649 5649 5648 5647 5647 5648 5649 5649 5650 5651
5639 5640 5640 5640 5640 5640 5640 5641 5641 5641 5641 5641 5642 5642 5642 5642 5642 5642 5642 5642 5643 5643 5644 5644 5644 5644 5644 5643 5642 5642 5641 5640 5640 5639 5638 5637 5636 5635 5635 5635 5635 5636 5636 5637
5639 5640 5640 5640 5640 5640 5641 5641 5641 5641 5641 5641 5641 5643 5641 5641 5640 5640 5640 5639 5639 5639 5639 5638 5638 5637 5636 5634 5633 5632 5631 5630 5629 5628 5626 5625 5624 5623 5623 5622 5622 5622 5623 5624
5640 5640 5640 5640 5641 5641 5643 5641 5641 5641 5641 5640 5640 5640 5640 5639 5638 5638 5637 5636 5635 5634 5633 5632 5630 5628 5627 5625 5624 5623 5621 5620 5618 5617 5615 5614 5613 5611 5610 5610 5609 5610 5610 5611
5640 5640 5640 5640 5640 5641 5641 5640 5639 5640 5639 5639 5638 5638 5637 5636 5635 5634 5633 5631 5630 5628 5626 5624 5622 5620 5618 5616 5614 5613 5611 5609 5608 5606 5605 5603 5601 5600 5599 5598 5598 5598 5598 5598
5640 5640 5640 5639 5639 5640 5641 5639 5638 5639 5638 5636 5635 5635 5634 5632 5632 5631 5628 5626 5624 5622 5619 5616 5614 5611 5609 5606 5604 5602 5600 5598 5597 5595 5594 5592 5590 5589 5588 5587 5586 5586 5586 5586
5639 5639 5639 5638 5638 5638 5638 5636 5636 5636 5636 5633 5632 5630 5629 5628 5626 5625 5622 5619 5617 5614 5611 5607 5604 5601 5598 5596 5593 5591 5589 5587 5585 5584 5582 5581 5579 5578 5577 5575 5575 5574 5574 5575
5638 5638 5637 5637 5636 5638 5635 5634 5634 5633 5631 5629 5627 5626 5624 5622 5620 5618 5615 5612 5609 5606 5602 5598 5595 5591 5588 5585 5582 5580 5577 5576 5574 5572 5571 5569 5568 5566 5565 5564 5564 5563 5563 5564
5636 5637 5636 5636 5637 5634 5632 5631 5630 5628 5627 5625 5623 5621 5619 5616 5614 5611 5608 5605 5601 5597 5593 5589 5585 5581 5577 5573 5570 5568 5566 5564 5562 5561 5559 5558 5556 5555 5555 5554 5553 5553 5553 5554
5634 5633 5633 5632 5632 5631 5629 5628 5626 5624 5622 5620 5618 5615 5612 5609 5606 5603 5600 5596 5592 5588 5583 5578 5574 5570 5566 5562 5559 5556 5554 5552 5550 5548 5547 5546 5545 5544 5543 5542 5542 5542 5543 5544
5631 5630 5630 5629 5628 5626 5625 5623 5622 5620 5617 5615 5612 5609 5605 5602 5598 5594 5591 5586 5582 5577 5572 5567 5563 5559 5555 5551 5547 5544 5542 5540 5538 5536 5534 5533 5532 5531 5531 5531 5531 5532 5532 5533
5628 5627 5627 5626 5624 5622 5621 5619 5617 5614 5612 5609 5605 5601 5597 5593 5589 5584 5580 5575 5571 5566 5561 5556 5552 5548 5544 5539 5535 5532 5529 5527 5525 5523 5521 5520 5519 5519 5519 5520 5520 5520 5521 5522